Time,TemperatureF,DewpointF,PressureIn,WindDirection,WindDirectionDegrees,WindSpeedMPH,WindSpeedGustMPH,Humidity,HourlyPrecipIn,Conditions,Clouds,dailyrainin,SoftwareType,DateUTC
2013-04-14 00:02:00,57.0,42.0,29.79,SSE,157,8.0,14.0,56,-99.99,,,-99.99,,2013-04-14 05:02:00,
2013-04-14 00:12:00,58.0,41.0,29.79,South,180,8.0,15.0,55,-99.99,,,-99.99,,2013-04-14 05:12:00,
2013-04-14 00:22:00,57.0,42.0,29.79,SSE,157,9.0,14.0,56,-99.99,,,-99.99,,2013-04-14 05:22:00,
2013-04-14 00:32:00,57.0,41.0,29.79,SE,135,8.0,12.0,56,-99.99,,,-99.99,,2013-04-14 05:32:00,
2013-04-14 00:42:00,58.0,41.0,29.78,South,180,10.0,14.0,55,-99.99,,,-99.99,,2013-04-14 05:42:00,
2013-04-14 00:52:00,58.0,41.0,29.78,SSE,157,10.0,16.0,54,-99.99,,,-99.99,,2013-04-14 05:52:00,
2013-04-14 01:02:00,57.0,41.0,29.77,SSE,157,11.0,18.0,55,-99.99,,,-99.99,,2013-04-14 06:02:00,
2013-04-14 01:12:00,57.0,41.0,29.77,SSE,157,12.0,20.0,55,-99.99,,,-99.99,,2013-04-14 06:12:00,
2013-04-14 01:22:00,57.0,41.0,29.77,SSE,157,11.0,17.0,56,-99.99,,,-99.99,,2013-04-14 06:22:00,
2013-04-14 01:32:00,57.0,41.0,29.77,SSE,157,11.0,16.0,57,-99.99,,,-99.99,,2013-04-14 06:32:00,
2013-04-14 01:42:00,56.0,42.0,29.76,South,180,12.0,17.0,57,-99.99,,,-99.99,,2013-04-14 06:42:00,
2013-04-14 01:52:00,56.0,42.0,29.76,South,180,13.0,19.0,59,-99.99,,,-99.99,,2013-04-14 06:52:00,
2013-04-14 02:02:00,56.0,42.0,29.76,SSE,157,13.0,20.0,61,-99.99,,,-99.99,,2013-04-14 07:02:00,
2013-04-14 02:12:00,56.0,42.0,29.74,South,180,13.0,21.0,60,-99.99,,,-99.99,,2013-04-14 07:12:00,
2013-04-14 02:22:00,56.0,42.0,29.73,South,180,14.0,19.0,60,-99.99,,,-99.99,,2013-04-14 07:22:00,
2013-04-14 02:32:00,56.0,42.0,29.73,South,180,13.0,19.0,61,-99.99,,,-99.99,,2013-04-14 07:32:00,
2013-04-14 02:42:00,56.0,43.0,29.73,SSE,157,13.0,19.0,62,-99.99,,,-99.99,,2013-04-14 07:42:00,
2013-04-14 02:52:00,56.0,43.0,29.73,SSE,157,14.0,20.0,62,-99.99,,,-99.99,,2013-04-14 07:52:00,
2013-04-14 03:02:00,55.0,43.0,29.72,SSE,157,14.0,21.0,63,-99.99,,,-99.99,,2013-04-14 08:02:00,
2013-04-14 03:12:00,55.0,43.0,29.72,SSE,157,14.0,21.0,64,-99.99,,,-99.99,,2013-04-14 08:12:00,
2013-04-14 03:22:00,54.0,43.0,29.71,South,180,13.0,18.0,65,-99.99,,,-99.99,,2013-04-14 08:22:00,
2013-04-14 03:32:00,54.0,43.0,29.71,SSE,157,13.0,17.0,66,-99.99,,,-99.99,,2013-04-14 08:32:00,
2013-04-14 03:42:00,54.0,44.0,29.71,South,180,12.0,16.0,67,-99.99,,,-99.99,,2013-04-14 08:42:00,
2013-04-14 03:52:00,54.0,44.0,29.71,South,180,10.0,16.0,68,-99.99,,,-99.99,,2013-04-14 08:52:00,
2013-04-14 04:03:00,54.0,44.0,29.70,SW,225,10.0,14.0,69,-99.99,,,-99.99,,2013-04-14 09:03:00,
2013-04-14 04:12:00,54.0,44.0,29.70,SSE,157,10.0,14.0,69,-99.99,,,-99.99,,2013-04-14 09:12:00,
2013-04-14 04:22:00,54.0,44.0,29.70,SSE,157,9.0,14.0,69,-99.99,,,-99.99,,2013-04-14 09:22:00,
2013-04-14 04:32:00,54.0,44.0,29.69,SSE,157,8.0,12.0,70,-99.99,,,-99.99,,2013-04-14 09:32:00,
2013-04-14 04:42:00,54.0,44.0,29.69,South,180,9.0,13.0,70,-99.99,,,-99.99,,2013-04-14 09:42:00,
2013-04-14 04:53:00,54.0,45.0,29.69,South,180,11.0,16.0,71,-99.99,,,-99.99,,2013-04-14 09:53:00,
2013-04-14 05:03:00,53.0,45.0,29.69,South,180,11.0,16.0,72,-99.99,,,-99.99,,2013-04-14 10:03:00,
2013-04-14 05:12:00,53.0,44.0,29.69,South,180,11.0,16.0,72,-99.99,,,-99.99,,2013-04-14 10:12:00,
2013-04-14 05:23:00,53.0,45.0,29.68,South,180,10.0,13.0,73,-99.99,,,-99.99,,2013-04-14 10:23:00,
2013-04-14 05:32:00,53.0,45.0,29.68,South,180,9.0,13.0,74,-99.99,,,-99.99,,2013-04-14 10:32:00,
2013-04-14 05:42:00,52.0,45.0,29.68,SSE,157,8.0,12.0,75,-99.99,,,-99.99,,2013-04-14 10:42:00,
2013-04-14 05:52:00,52.0,45.0,29.66,SSE,157,8.0,11.0,76,-99.99,,,-99.99,,2013-04-14 10:52:00,
2013-04-14 06:02:00,53.0,45.0,29.66,South,180,10.0,14.0,74,-99.99,,,-99.99,,2013-04-14 11:02:00,
2013-04-14 06:12:00,53.0,45.0,29.65,South,180,12.0,18.0,72,-99.99,,,-99.99,,2013-04-14 11:12:00,
2013-04-14 06:22:00,54.0,45.0,29.65,South,180,12.0,17.0,72,-99.99,,,-99.99,,2013-04-14 11:22:00,
2013-04-14 06:32:00,54.0,45.0,29.65,SSE,157,12.0,17.0,72,-99.99,,,-99.99,,2013-04-14 11:32:00,
2013-04-14 06:42:00,54.0,45.0,29.65,SSE,157,12.0,15.0,71,-99.99,,,-99.99,,2013-04-14 11:42:00,
2013-04-14 06:52:00,54.0,45.0,29.65,South,180,12.0,18.0,71,-99.99,,,-99.99,,2013-04-14 11:52:00,
2013-04-14 07:02:00,54.0,45.0,29.66,SSE,157,12.0,19.0,70,-99.99,,,-99.99,,2013-04-14 12:02:00,
2013-04-14 07:12:00,55.0,45.0,29.66,SSE,157,12.0,17.0,70,-99.99,,,-99.99,,2013-04-14 12:12:00,
2013-04-14 07:21:00,55.0,45.0,29.67,SSE,157,14.0,20.0,69,-99.99,,,-99.99,,2013-04-14 12:21:00,
2013-04-14 07:32:00,56.0,45.0,29.67,South,180,14.0,22.0,69,-99.99,,,-99.99,,2013-04-14 12:32:00,
2013-04-14 07:42:00,56.0,45.0,29.67,South,180,14.0,22.0,68,-99.99,,,-99.99,,2013-04-14 12:42:00,
2013-04-14 07:51:00,56.0,45.0,29.67,SSE,157,16.0,21.0,67,-99.99,,,-99.99,,2013-04-14 12:51:00,
2013-04-14 08:02:00,57.0,46.0,29.67,SSE,157,16.0,24.0,66,-99.99,,,-99.99,,2013-04-14 13:02:00,
2013-04-14 08:12:00,58.0,46.0,29.68,South,180,16.0,24.0,66,-99.99,,,-99.99,,2013-04-14 13:12:00,
2013-04-14 08:22:00,58.0,46.0,29.67,South,180,17.0,25.0,65,-99.99,,,-99.99,,2013-04-14 13:22:00,
2013-04-14 08:32:00,59.0,47.0,29.68,SSE,157,14.0,21.0,64,-99.99,,,-99.99,,2013-04-14 13:32:00,
2013-04-14 08:42:00,60.0,47.0,29.68,South,180,15.0,25.0,62,-99.99,,,-99.99,,2013-04-14 13:42:00,
2013-04-14 08:52:00,61.0,47.0,29.68,South,180,17.0,23.0,59,-99.99,,,-99.99,,2013-04-14 13:52:00,
2013-04-14 09:02:00,62.0,47.0,29.67,South,180,17.0,26.0,57,-99.99,,,-99.99,,2013-04-14 14:02:00,
2013-04-14 09:12:00,63.0,47.0,29.67,SSW,202,17.0,30.0,57,-99.99,,,-99.99,,2013-04-14 14:12:00,
2013-04-14 09:22:00,63.0,47.0,29.67,South,180,16.0,26.0,56,-99.99,,,-99.99,,2013-04-14 14:22:00,
2013-04-14 09:32:00,64.0,48.0,29.67,South,180,14.0,20.0,56,-99.99,,,-99.99,,2013-04-14 14:32:00,
2013-04-14 09:42:00,64.0,48.0,29.67,South,180,18.0,25.0,56,-99.99,,,-99.99,,2013-04-14 14:42:00,
2013-04-14 09:52:00,65.0,47.0,29.65,SE,135,18.0,27.0,51,-99.99,,,-99.99,,2013-04-14 14:52:00,
2013-04-14 10:02:00,66.0,48.0,29.66,South,180,15.0,22.0,51,-99.99,,,-99.99,,2013-04-14 15:02:00,
2013-04-14 10:12:00,67.0,47.0,29.65,SSW,202,19.0,26.0,49,-99.99,,,-99.99,,2013-04-14 15:12:00,
2013-04-14 10:22:00,67.0,47.0,29.64,SSE,157,17.0,24.0,48,-99.99,,,-99.99,,2013-04-14 15:22:00,
2013-04-14 10:33:00,68.0,47.0,29.64,South,180,16.0,23.0,47,-99.99,,,-99.99,,2013-04-14 15:33:00,
2013-04-14 10:43:00,69.0,48.0,29.64,South,180,16.0,26.0,46,-99.99,,,-99.99,,2013-04-14 15:43:00,
2013-04-14 10:52:00,69.0,45.0,29.64,SSW,202,20.0,27.0,42,-99.99,,,-99.99,,2013-04-14 15:52:00,
2013-04-14 11:04:00,70.0,46.0,29.63,South,180,19.0,30.0,42,-99.99,,,-99.99,,2013-04-14 16:04:00,
2013-04-14 11:13:00,71.0,46.0,29.63,South,180,17.0,29.0,41,-99.99,,,-99.99,,2013-04-14 16:13:00,
2013-04-14 11:22:00,71.0,48.0,29.63,SSE,157,18.0,26.0,45,-99.99,,,-99.99,,2013-04-14 16:22:00,
2013-04-14 11:32:00,71.0,45.0,29.63,South,180,17.0,26.0,38,-99.99,,,-99.99,,2013-04-14 16:32:00,
2013-04-14 11:43:00,71.0,44.0,29.62,SSE,157,18.0,26.0,38,-99.99,,,-99.99,,2013-04-14 16:43:00,
2013-04-14 11:52:00,71.0,45.0,29.61,SSW,202,19.0,29.0,39,-99.99,,,-99.99,,2013-04-14 16:52:00,
2013-04-14 12:02:00,72.0,45.0,29.61,SSW,202,17.0,24.0,39,-99.99,,,-99.99,,2013-04-14 17:02:00,
2013-04-14 12:12:00,73.0,43.0,29.61,SSW,202,18.0,27.0,34,-99.99,,,-99.99,,2013-04-14 17:12:00,
2013-04-14 12:22:00,73.0,42.0,29.60,South,180,20.0,33.0,33,-99.99,,,-99.99,,2013-04-14 17:22:00,
2013-04-14 12:32:00,74.0,45.0,29.60,SSW,202,18.0,27.0,35,-99.99,,,-99.99,,2013-04-14 17:32:00,
2013-04-14 12:42:00,74.0,42.0,29.59,South,180,18.0,28.0,31,-99.99,,,-99.99,,2013-04-14 17:42:00,
2013-04-14 12:52:00,74.0,43.0,29.58,South,180,19.0,30.0,33,-99.99,,,-99.99,,2013-04-14 17:52:00,
2013-04-14 13:02:00,74.0,42.0,29.59,South,180,18.0,27.0,31,-99.99,,,-99.99,,2013-04-14 18:02:00,
2013-04-14 13:12:00,74.0,43.0,29.58,South,180,19.0,28.0,32,-99.99,,,-99.99,,2013-04-14 18:12:00,
2013-04-14 13:22:00,75.0,44.0,29.58,South,180,16.0,24.0,34,-99.99,,,-99.99,,2013-04-14 18:22:00,
2013-04-14 13:32:00,74.0,45.0,29.58,SSW,202,18.0,27.0,35,-99.99,,,-99.99,,2013-04-14 18:32:00,
2013-04-14 13:42:00,75.0,46.0,29.59,South,180,14.0,25.0,35,-99.99,,,-99.99,,2013-04-14 18:42:00,
2013-04-14 13:52:00,74.0,44.0,29.58,South,180,18.0,29.0,34,-99.99,,,-99.99,,2013-04-14 18:52:00,
2013-04-14 14:03:00,74.0,44.0,29.58,South,180,19.0,30.0,34,-99.99,,,-99.99,,2013-04-14 19:03:00,
2013-04-14 14:12:00,74.0,47.0,29.58,South,180,16.0,25.0,38,-99.99,,,-99.99,,2013-04-14 19:12:00,
2013-04-14 14:22:00,73.0,46.0,29.57,SSE,157,18.0,26.0,38,-99.99,,,-99.99,,2013-04-14 19:22:00,
2013-04-14 14:32:00,73.0,46.0,29.57,South,180,17.0,24.0,38,-99.99,,,-99.99,,2013-04-14 19:32:00,
2013-04-14 14:42:00,75.0,47.0,29.56,SE,135,15.0,25.0,37,-99.99,,,-99.99,,2013-04-14 19:42:00,
2013-04-14 14:52:00,76.0,49.0,29.56,South,180,16.0,26.0,39,-99.99,,,-99.99,,2013-04-14 19:52:00,
2013-04-14 15:02:00,76.0,45.0,29.55,South,180,17.0,26.0,33,-99.99,,,-99.99,,2013-04-14 20:02:00,
2013-04-14 15:12:00,76.0,48.0,29.55,South,180,15.0,25.0,37,-99.99,,,-99.99,,2013-04-14 20:12:00,
2013-04-14 15:22:00,77.0,50.0,29.54,SSW,202,13.0,18.0,39,-99.99,,,-99.99,,2013-04-14 20:22:00,
2013-04-14 15:33:00,76.0,47.0,29.53,SSW,202,16.0,27.0,35,-99.99,,,-99.99,,2013-04-14 20:33:00,
2013-04-14 15:42:00,77.0,43.0,29.53,South,180,17.0,28.0,30,-99.99,,,-99.99,,2013-04-14 20:42:00,
2013-04-14 15:52:00,78.0,43.0,29.52,SSW,202,16.0,23.0,29,-99.99,,,-99.99,,2013-04-14 20:52:00,
2013-04-14 16:02:00,78.0,43.0,29.52,South,180,16.0,22.0,29,-99.99,,,-99.99,,2013-04-14 21:02:00,
2013-04-14 16:12:00,78.0,43.0,29.52,SSW,202,16.0,23.0,29,-99.99,,,-99.99,,2013-04-14 21:12:00,
2013-04-14 16:22:00,78.0,42.0,29.51,SSE,157,16.0,23.0,28,-99.99,,,-99.99,,2013-04-14 21:22:00,
2013-04-14 16:33:00,77.0,41.0,29.52,SSW,202,15.0,26.0,27,-99.99,,,-99.99,,2013-04-14 21:33:00,
2013-04-14 16:43:00,77.0,44.0,29.52,South,180,14.0,20.0,31,-99.99,,,-99.99,,2013-04-14 21:43:00,
2013-04-14 16:53:00,77.0,42.0,29.52,South,180,15.0,21.0,29,-99.99,,,-99.99,,2013-04-14 21:53:00,
2013-04-14 17:03:00,76.0,43.0,29.52,South,180,13.0,20.0,31,-99.99,,,-99.99,,2013-04-14 22:03:00,
2013-04-14 17:12:00,76.0,43.0,29.52,SSW,202,11.0,15.0,30,-99.99,,,-99.99,,2013-04-14 22:12:00,
2013-04-14 17:23:00,76.0,43.0,29.52,SSW,202,11.0,20.0,30,-99.99,,,-99.99,,2013-04-14 22:23:00,
2013-04-14 17:32:00,76.0,44.0,29.52,SW,225,10.0,14.0,32,-99.99,,,-99.99,,2013-04-14 22:32:00,
2013-04-14 17:43:00,75.0,48.0,29.53,SW,225,8.0,11.0,40,-99.99,,,-99.99,,2013-04-14 22:43:00,
2013-04-14 17:52:00,75.0,46.0,29.52,SSW,202,7.0,11.0,36,-99.99,,,-99.99,,2013-04-14 22:52:00,
2013-04-14 18:02:00,75.0,48.0,29.53,SSW,202,8.0,11.0,39,-99.99,,,-99.99,,2013-04-14 23:02:00,
2013-04-14 18:12:00,74.0,47.0,29.53,SSW,202,8.0,11.0,38,-99.99,,,-99.99,,2013-04-14 23:12:00,
2013-04-14 18:22:00,73.0,46.0,29.54,SW,225,8.0,12.0,39,-99.99,,,-99.99,,2013-04-14 23:22:00,
2013-04-14 18:33:00,73.0,46.0,29.54,WSW,247,10.0,16.0,38,-99.99,,,-99.99,,2013-04-14 23:33:00,
2013-04-14 18:42:00,73.0,45.0,29.54,SSW,202,8.0,12.0,37,-99.99,,,-99.99,,2013-04-14 23:42:00,
2013-04-14 18:52:00,72.0,46.0,29.54,SW,225,8.0,11.0,39,-99.99,,,-99.99,,2013-04-14 23:52:00,
2013-04-14 19:02:00,72.0,46.0,29.54,SW,225,8.0,11.0,39,-99.99,,,-99.99,,2013-04-15 00:02:00,
2013-04-14 19:12:00,71.0,46.0,29.54,SW,225,8.0,10.0,41,-99.99,,,-99.99,,2013-04-15 00:12:00,
2013-04-14 19:22:00,70.0,47.0,29.55,WSW,247,7.0,10.0,44,-99.99,,,-99.99,,2013-04-15 00:22:00,
2013-04-14 19:32:00,69.0,48.0,29.55,SW,225,6.0,8.0,47,-99.99,,,-99.99,,2013-04-15 00:32:00,
2013-04-14 19:42:00,68.0,49.0,29.55,SW,225,5.0,7.0,49,-99.99,,,-99.99,,2013-04-15 00:42:00,
2013-04-14 19:52:00,69.0,47.0,29.55,SSW,202,4.0,5.0,45,-99.99,,,-99.99,,2013-04-15 00:52:00,
2013-04-14 20:02:00,69.0,49.0,29.55,SSW,202,4.0,5.0,49,-99.99,,,-99.99,,2013-04-15 01:02:00,
2013-04-14 20:12:00,67.0,49.0,29.56,SSW,202,3.0,4.0,52,-99.99,,,-99.99,,2013-04-15 01:12:00,
2013-04-14 20:23:00,69.0,47.0,29.56,South,180,4.0,5.0,46,-99.99,,,-99.99,,2013-04-15 01:23:00,
2013-04-14 20:32:00,69.0,48.0,29.56,South,180,4.0,6.0,47,-99.99,,,-99.99,,2013-04-15 01:32:00,
2013-04-14 20:42:00,68.0,49.0,29.57,SSW,202,4.0,6.0,51,-99.99,,,-99.99,,2013-04-15 01:42:00,
2013-04-14 20:52:00,66.0,50.0,29.58,SW,225,5.0,8.0,56,-99.99,,,-99.99,,2013-04-15 01:52:00,
2013-04-14 21:02:00,64.0,53.0,29.62,West,270,12.0,25.0,68,-99.99,,,-99.99,,2013-04-15 02:02:00,
2013-04-14 21:12:00,63.0,54.0,29.64,West,270,13.0,18.0,72,-99.99,,,-99.99,,2013-04-15 02:12:00,
2013-04-14 21:22:00,62.0,55.0,29.65,WSW,247,11.0,16.0,79,-99.99,,,-99.99,,2013-04-15 02:22:00,
2013-04-14 21:32:00,61.0,55.0,29.66,WSW,247,7.0,10.0,81,-99.99,,,-99.99,,2013-04-15 02:32:00,
2013-04-14 21:42:00,61.0,56.0,29.67,West,270,6.0,9.0,84,-99.99,,,-99.99,,2013-04-15 02:42:00,
2013-04-14 21:52:00,60.0,56.0,29.68,WSW,247,5.0,8.0,86,-99.99,,,-99.99,,2013-04-15 02:52:00,
2013-04-14 22:03:00,60.0,56.0,29.69,WSW,247,5.0,7.0,86,-99.99,,,-99.99,,2013-04-15 03:03:00,
2013-04-14 22:12:00,60.0,56.0,29.69,WNW,292,3.0,4.0,88,-99.99,,,-99.99,,2013-04-15 03:12:00,
2013-04-14 22:22:00,59.0,56.0,29.69,WNW,292,0.0,-999.0,88,-99.99,,,-99.99,,2013-04-15 03:22:00,
2013-04-14 22:32:00,59.0,56.0,29.71,NW,315,4.0,6.0,89,-99.99,,,-99.99,,2013-04-15 03:32:00,
2013-04-14 22:43:00,60.0,56.0,29.71,WNW,292,3.0,4.0,89,-99.99,,,-99.99,,2013-04-15 03:43:00,
2013-04-14 22:54:00,59.0,56.0,29.72,NW,315,0.0,-999.0,90,-99.99,,,-99.99,,2013-04-15 03:54:00,
2013-04-14 23:03:00,59.0,56.0,29.72,East,90,3.0,4.0,90,-99.99,,,-99.99,,2013-04-15 04:03:00,
2013-04-14 23:13:00,59.0,56.0,29.72,NNW,337,3.0,5.0,89,-99.99,,,-99.99,,2013-04-15 04:13:00,
2013-04-14 23:22:00,59.0,56.0,29.72,NNE,22,3.0,4.0,90,-99.99,,,-99.99,,2013-04-15 04:22:00,
2013-04-14 23:33:00,59.0,56.0,29.72,NNW,337,2.0,4.0,89,-99.99,,,-99.99,,2013-04-15 04:33:00,
2013-04-14 23:42:00,59.0,56.0,29.73,NNW,337,1.0,3.0,89,-99.99,,,-99.99,,2013-04-15 04:42:00,
2013-04-14 23:52:00,59.0,56.0,29.73,NE,45,2.0,3.0,89,-99.99,,,-99.99,,2013-04-15 04:52:00,